Location: Newark
(40.3500°N, 15.2333°E)
Time: 23:47:04
(UTC+00:00)

Vanguard 1 - Pass Details

Date: 01 February 2020
Orbit: 650 x 3833 km, 34.2° (Epoch: 19 February)

Event Time Altitude Azimuth Distance (km) Brightness Sun altitude
Rises 10:36:32 0° 200° (SSW) 5,480 14.7 31.9°
Reaches altitude 10° 10:43:59 10° 172° (S) 3,596 14.5 32.1°
Maximum altitude 10:46:19 11° 156° (SSE) 3,222 14.1 32.1°
Drops below altitude 10° 10:48:23 10° 140° (SE) 3,077 13.6 32.2°
Sets 10:53:04 0° 105° (ESE) 3,523 13.2 32.3°
